When you browse on this site, cookies collect data to enhance your experience and personalize the content and advertising you see.
Visit our Privacy Policy to learn more. By continuing to use the site, you agree to this use of cookies and data.
  • In Hungary
  • List of Countries
  • For 7 days
  • Water Temperature
  • Satellite Maps
  • Weather Map
  • News
  • Weather Widgets
  • user-avatar
    Login

    Hourly Weather Saharovka

    Today, 23 May, Thursday

    Time Temperature Precipitation Wind Pressure Humidity
    00:00 +10°C° 0 mm 2 mps 753 mmHg 94%
    01:00 +9°C° 0.1 mm 2 mps 752 mmHg 95%
    02:00 +9°C° 0.1 mm 2 mps 752 mmHg 96%
    03:00 +9°C° 0 mm 2 mps 751 mmHg 97%
    04:00 +10°C° 0.3 mm 2 mps 751 mmHg 95%
    05:00 +11°C° 0.3 mm 3 mps 750 mmHg 93%
    06:00 +12°C° 0.3 mm 3 mps 750 mmHg 92%
    07:00 +13°C° 0.5 mm 4 mps 750 mmHg 91%
    08:00 +14°C° 0.5 mm 4 mps 749 mmHg 90%
    09:00 +14°C° 0.5 mm 5 mps 749 mmHg 89%
    10:00 +16°C° 0.7 mm 5 mps 749 mmHg 84%
    11:00 +17°C° 0.7 mm 6 mps 748 mmHg 79%
    12:00 +19°C° 0.7 mm 6 mps 748 mmHg 73%
    13:00 +19°C° 0.5 mm 6 mps 748 mmHg 73%
    14:00 +18°C° 0.5 mm 7 mps 747 mmHg 72%
    15:00 +18°C° 0.5 mm 7 mps 747 mmHg 71%
    16:00 +17°C° 1.4 mm 6 mps 746 mmHg 77%
    17:00 +16°C° 1.4 mm 6 mps 746 mmHg 82%
    18:00 +15°C° 1.4 mm 5 mps 745 mmHg 88%
    19:00 +15°C° 1 mm 5 mps 745 mmHg 89%
    20:00 +14°C° 1 mm 5 mps 745 mmHg 90%
    21:00 +14°C° 1 mm 5 mps 745 mmHg 91%
    22:00 +13°C° 0.3 mm 5 mps 745 mmHg 93%
    23:00 +13°C° 0.3 mm 4 mps 745 mmHg 94%

    Tomorrow, 24 May, Friday

    Time Temperature Precipitation Wind Pressure Humidity
    00:00 +12°C° 0.3 mm 3 mps 745 mmHg 96%
    01:00 +11°C° 0 mm 4 mps 746 mmHg 94%
    02:00 +9°C° 0 mm 5 mps 746 mmHg 92%
    03:00 +8°C° 0 mm 6 mps 747 mmHg 91%
    04:00 +8°C° 0 mm 6 mps 748 mmHg 89%
    05:00 +7°C° 0 mm 6 mps 748 mmHg 87%
    06:00 +7°C° 0 mm 5 mps 749 mmHg 85%
    07:00 +8°C° 0 mm 5 mps 750 mmHg 77%
    08:00 +9°C° 0 mm 5 mps 751 mmHg 68%
    09:00 +10°C° 0 mm 5 mps 751 mmHg 60%
    10:00 +10°C° 0 mm 5 mps 752 mmHg 57%
    11:00 +12°C° 0 mm 5 mps 752 mmHg 54%
    12:00 +12°C° 0 mm 5 mps 752 mmHg 52%
    13:00 +12°C° 0 mm 5 mps 753 mmHg 51%
    14:00 +12°C° 0 mm 5 mps 753 mmHg 51%
    15:00 +12°C° 0 mm 5 mps 753 mmHg 50%
    16:00 +12°C° 0 mm 5 mps 754 mmHg 54%
    17:00 +11°C° 0 mm 4 mps 754 mmHg 57%
    18:00 +11°C° 0 mm 3 mps 755 mmHg 61%
    19:00 +9°C° 0 mm 3 mps 755 mmHg 63%
    20:00 +8°C° 0 mm 3 mps 756 mmHg 65%
    21:00 +7°C° 0 mm 2 mps 757 mmHg 67%
    22:00 +6°C° 0 mm 2 mps 757 mmHg 67%
    23:00 +5°C° 0 mm 2 mps 758 mmHg 67%

    Day after tomorrow, 25 May, Saturday

    Time Temperature Precipitation Wind Pressure Humidity
    00:00 +6°C° 0 mm 1 mps 758 mmHg 67%
    01:00 +6°C° 0 mm 1 mps 758 mmHg 68%
    02:00 +5°C° 0 mm 1 mps 759 mmHg 68%
    03:00 +5°C° 0 mm 1 mps 759 mmHg 68%
    04:00 +6°C° 0 mm 1 mps 759 mmHg 67%
    05:00 +7°C° 0 mm 1 mps 760 mmHg 65%
    06:00 +8°C° 0 mm 1 mps 760 mmHg 63%
    07:00 +9°C° 0 mm 1 mps 760 mmHg 59%
    08:00 +9°C° 0 mm 2 mps 761 mmHg 55%
    09:00 +12°C° 0 mm 2 mps 761 mmHg 50%
    10:00 +12°C° 0 mm 2 mps 760 mmHg 49%
    11:00 +13°C° 0 mm 2 mps 760 mmHg 48%
    12:00 +14°C° 0 mm 2 mps 760 mmHg 46%
    13:00 +14°C° 0 mm 2 mps 760 mmHg 47%
    14:00 +14°C° 0 mm 2 mps 759 mmHg 47%
    15:00 +15°C° 0 mm 2 mps 759 mmHg 48%
    16:00 +15°C° 0 mm 2 mps 759 mmHg 53%
    17:00 +14°C° 0 mm 2 mps 758 mmHg 57%
    18:00 +14°C° 0 mm 2 mps 758 mmHg 62%
    19:00 +11°C° 0 mm 3 mps 758 mmHg 64%
    20:00 +10°C° 0 mm 3 mps 758 mmHg 66%
    21:00 +9°C° 0 mm 3 mps 758 mmHg 67%
    22:00 +8°C° 0 mm 3 mps 758 mmHg 69%
    23:00 +8°C° 0 mm 3 mps 758 mmHg 70%

    26 May, Sunday

    Time Temperature Precipitation Wind Pressure Humidity
    00:00 +7°C° 0 mm 3 mps 758 mmHg 71%
    01:00 +6°C° 0 mm 4 mps 758 mmHg 71%
    02:00 +6°C° 0 mm 4 mps 758 mmHg 71%
    03:00 +6°C° 0 mm 4 mps 757 mmHg 72%
    04:00 +7°C° 0 mm 5 mps 757 mmHg 71%
    05:00 +8°C° 0 mm 5 mps 757 mmHg 70%
    06:00 +9°C° 0 mm 6 mps 757 mmHg 69%
    07:00 +11°C° 0 mm 6 mps 756 mmHg 65%
    08:00 +13°C° 0 mm 6 mps 756 mmHg 61%
    09:00 +15°C° 0 mm 7 mps 755 mmHg 58%
    10:00 +16°C° 0 mm 7 mps 755 mmHg 59%
    11:00 +16°C° 0 mm 7 mps 755 mmHg 59%
    12:00 +17°C° 0 mm 6 mps 755 mmHg 60%
    13:00 +17°C° 0.1 mm 6 mps 754 mmHg 64%
    14:00 +17°C° 0.1 mm 5 mps 754 mmHg 67%
    15:00 +17°C° 0.1 mm 5 mps 753 mmHg 71%
    16:00 +19°C° 0 mm 5 mps 753 mmHg 72%
    17:00 +19°C° 0 mm 4 mps 753 mmHg 72%
    18:00 +20°C° 0 mm 4 mps 752 mmHg 73%
    19:00 +19°C° 0 mm 4 mps 752 mmHg 77%
    20:00 +18°C° 0 mm 4 mps 752 mmHg 81%
    21:00 +17°C° 0 mm 4 mps 752 mmHg 85%
    22:00 +17°C° 0.1 mm 4 mps 751 mmHg 88%
    23:00 +16°C° 0.1 mm 3 mps 751 mmHg 90%

    27 May, Monday

    Time Temperature Precipitation Wind Pressure Humidity
    00:00 +16°C° 0.1 mm 3 mps 751 mmHg 93%
    01:00 +16°C° 0.1 mm 3 mps 750 mmHg 94%
    02:00 +15°C° 0.1 mm 4 mps 750 mmHg 94%
    03:00 +15°C° 0.1 mm 4 mps 750 mmHg 95%
    04:00 +15°C° 0.1 mm 4 mps 749 mmHg 93%
    05:00 +16°C° 0.1 mm 5 mps 749 mmHg 91%
    06:00 +16°C° 0.1 mm 5 mps 749 mmHg 90%
    07:00 +16°C° 0.3 mm 5 mps 748 mmHg 89%
    08:00 +17°C° 0.3 mm 5 mps 748 mmHg 89%
    09:00 +17°C° 0.3 mm 5 mps 748 mmHg 88%
    10:00 +17°C° 0.3 mm 5 mps 747 mmHg 88%
    11:00 +17°C° 0.3 mm 5 mps 747 mmHg 87%
    12:00 +17°C° 0.3 mm 5 mps 747 mmHg 87%
    13:00 +19°C° 0.1 mm 6 mps 747 mmHg 83%
    14:00 +20°C° 0.1 mm 6 mps 747 mmHg 79%
    15:00 +21°C° 0.1 mm 6 mps 747 mmHg 76%
    16:00 +21°C° 0.2 mm 6 mps 747 mmHg 75%
    17:00 +20°C° 0.2 mm 5 mps 747 mmHg 75%
    18:00 +20°C° 0.2 mm 5 mps 748 mmHg 75%
    19:00 +19°C° 0 mm 5 mps 749 mmHg 76%
    20:00 +16°C° 0 mm 5 mps 749 mmHg 78%
    21:00 +15°C° 0 mm 5 mps 750 mmHg 79%
    22:00 +14°C° 0 mm 5 mps 751 mmHg 80%
    23:00 +14°C° 0 mm 5 mps 751 mmHg 81%

    28 May, Tuesday

    Time Temperature Precipitation Wind Pressure Humidity
    00:00 +13°C° 0 mm 5 mps 752 mmHg 82%
    01:00 +12°C° 0 mm 5 mps 752 mmHg 83%
    02:00 +11°C° 0 mm 4 mps 753 mmHg 84%
    03:00 +10°C° 0 mm 4 mps 753 mmHg 85%
    04:00 +11°C° 0 mm 4 mps 754 mmHg 82%
    05:00 +12°C° 0 mm 5 mps 754 mmHg 79%
    06:00 +11°C° 0 mm 6 mps 755 mmHg 76%
    07:00 +13°C° 0 mm 6 mps 755 mmHg 71%
    08:00 +14°C° 0 mm 6 mps 755 mmHg 66%
    09:00 +15°C° 0 mm 7 mps 755 mmHg 61%
    10:00 +16°C° 0 mm 7 mps 756 mmHg 59%
    11:00 +17°C° 0 mm 7 mps 756 mmHg 58%
    12:00 +17°C° 0 mm 7 mps 756 mmHg 56%
    13:00 +18°C° 0 mm 7 mps 756 mmHg 56%
    14:00 +18°C° 0 mm 7 mps 756 mmHg 56%
    15:00 +18°C° 0 mm 7 mps 757 mmHg 56%
    16:00 +19°C° 0 mm 6 mps 757 mmHg 60%
    17:00 +17°C° 0 mm 5 mps 757 mmHg 64%
    18:00 +18°C° 0 mm 4 mps 757 mmHg 69%
    19:00 +17°C° 0 mm 4 mps 757 mmHg 72%
    20:00 +14°C° 0 mm 4 mps 758 mmHg 76%
    21:00 +13°C° 0 mm 3 mps 758 mmHg 80%
    22:00 +13°C° 0 mm 3 mps 758 mmHg 82%
    23:00 +12°C° 0 mm 3 mps 758 mmHg 84%
    Show more